Tracking 29932 objects as of 3-Dec-2024
HD Live streaming from Space Station
objects crossing your sky now

COSMOS 2091

Track COSMOS 2091 now!
10-day predictions
COSMOS 2091 is classified as:


NORAD ID: 20736
Int'l Code: 1990-070B
Perigee: 1,417.6 km
Apogee: 1,421.7 km
Inclination: 82.6 °
Period: 114.1 minutes
Semi major axis: 7790 km
RCS: 1.144 m2 (large)
Launch date: August 8, 1990
Source: Commonwealth of Independent States (former USSR) (CIS)
Launch site: PLESETSK MISSILE AND SPACE COMPLEX (PKMTR)
Your satellite tracking list
Your tracking list is empty




NASA's NSSDC Master Catalog

Two Line Element Set (TLE):
1 20736U 90070B   24337.45166897  .00000031  00000-0  11340-3 0  9995
2 20736  82.5766 326.7866 0002651 319.5401 195.5360 12.62539947581426
Source of the keplerian elements: AFSPC